Fortuna, CA

4:31 PM PDT on August 31, 2016 (GMT -0700)
Rohnerville

Weather History for KFOT - May, 2013

Change the Weather History Date:

Sunday, May 5, 2013

  Actual Average (KEKA) Record (KEKA)
Temperature  
Mean Temperature 53 °F 53 °F  
Max Temperature 62 °F 59 °F 70 °F (1902)
Min Temperature 44 °F 46 °F 39 °F (1999)
Degree Days  
Heating Degree Days 12 12  
Month to date heating degree days 63  
Since 1 July heating degree days 3884  
Cooling Degree Days 0 0  
Month to date cooling degree days 0  
Year to date cooling degree days 0  
Growing Degree Days 3 (Base 50)    
Moisture  
Dew Point 48 °F    
Average Humidity 85    
Maximum Humidity 100    
Minimum Humidity 63    
Precipitation  
Precipitation 0.00 in 0.07 in 1.37 in (1889)
Month to date precipitation 0.37  
Year to date precipitation 21.12  
Snow  
Snow 0.00 in 0.00 in 0.00 in (2002)
Month to date snowfall 0.0  
Since 1 July snowfall 0.2  
Snow Depth -    
Sea Level Pressure  
Sea Level Pressure 29.69 in    
Wind  
Wind Speed 4 mph (WNW)    
Max Wind Speed 17 mph    
Max Gust Speed 21 mph    
Visibility 9 miles    
Events      
T = Trace of Precipitation, MM = Missing Value Source: NWS Daily Summary

Daily Weather History Graph

Daily Weather History Graph

Search for Another Location

Airport or City:

Trip Planner

Search our weather history database for the weather conditions in past years. The results will help you decide how hot, cold, wet, or windy it might be!

Date:

Astronomy

May. 05, 2013 Rise Set
Actual Time 6:10 AM PDT 8:16 PM PDT
Civil Twilight 5:40 AM PDT 8:46 PM PDT
Nautical Twilight 5:03 AM PDT 9:23 PM PDT
Astronomical Twilight 4:23 AM PDT 10:04 PM PDT
Moon 3:44 AM PDT (5/5) 4:21 PM PDT (5/5)
Length of Visible Light 15h 06m
Length of Day
14h 06m
Waning Crescent, 17% of the Moon is Illuminated
May 5
Waning Crescent
May 9
New
May 17
First Quarter
May 24
Full
May 31
Last Quarter

Hourly Weather History & Observations

Time (PDT) Temp. Windchill Dew Point Humidity Pressure Visibility Wind Dir Wind Speed Gust Speed Precip Events Conditions
12:15 AM 53.6 °F - 48.2 °F 82% 29.60 in 10.0 mi Calm Calm - N/A   Clear
12:35 AM 53.6 °F - 46.4 °F 77% 29.60 in 10.0 mi Calm Calm - N/A   Clear
12:55 AM 51.8 °F - 46.4 °F 82% 29.60 in 10.0 mi Calm Calm - N/A   Clear
1:15 AM 53.6 °F - 46.4 °F 77% 29.59 in 10.0 mi Calm Calm - N/A   Clear
1:35 AM 53.6 °F - 46.4 °F 77% 29.59 in 10.0 mi Calm Calm - N/A   Clear
1:55 AM 53.6 °F - 46.4 °F 77% 29.59 in 10.0 mi SE 3.5 mph - N/A   Clear
2:15 AM 51.8 °F - 46.4 °F 82% 29.59 in 10.0 mi Calm Calm - N/A   Clear
2:35 AM 48.2 °F - 46.4 °F 93% 29.58 in 10.0 mi Calm Calm - N/A   Clear
2:55 AM 46.4 °F - 44.6 °F 93% 29.58 in 4.0 mi Calm Calm - N/A   Clear
3:15 AM 46.4 °F - 46.4 °F 100% 29.57 in 5.0 mi Calm Calm - N/A   Clear
3:35 AM 46.4 °F - 46.4 °F 100% 29.58 in 6.0 mi Calm Calm - N/A   Clear
3:55 AM 46.4 °F 42.9 °F 46.4 °F 100% 29.58 in 6.0 mi West 6.9 mph - N/A   Clear
4:15 AM 46.4 °F - 44.6 °F 93% 29.58 in 7.0 mi Calm Calm - N/A   Clear
4:35 AM 46.4 °F - 46.4 °F 100% 29.58 in 7.0 mi Calm Calm - N/A   Clear
4:55 AM 46.4 °F 45.2 °F 44.6 °F 93% 29.58 in 9.0 mi WNW 3.5 mph - N/A   Clear
5:15 AM 46.4 °F - 44.6 °F 93% 29.59 in 10.0 mi Calm Calm - N/A   Clear
5:35 AM 46.4 °F - 44.6 °F 93% 29.59 in 8.0 mi Calm Calm - N/A   Clear
5:55 AM 44.6 °F 43.1 °F 44.6 °F 100% 29.60 in 3.0 mi WNW 3.5 mph - N/A   Scattered Clouds
6:15 AM 44.6 °F - 44.6 °F 100% 29.61 in 1.0 mi Calm Calm - N/A   Mostly Cloudy
6:35 AM 44.6 °F - 44.6 °F 100% 29.62 in 5.0 mi Calm Calm - N/A   Clear
6:55 AM 46.4 °F - 46.4 °F 100% 29.62 in 8.0 mi Calm Calm - N/A   Clear
7:15 AM 46.4 °F 45.2 °F 46.4 °F 100% 29.63 in 8.0 mi NW 3.5 mph - N/A   Clear
7:35 AM 48.2 °F - 46.4 °F 93% 29.64 in 8.0 mi NW 4.6 mph - N/A   Clear
7:55 AM 48.2 °F - 46.4 °F 93% 29.64 in 9.0 mi NNW 3.5 mph - N/A   Clear
8:15 AM 50.0 °F - 46.4 °F 87% 29.65 in 10.0 mi NNW 4.6 mph - N/A   Clear
8:35 AM 50.0 °F - 48.2 °F 94% 29.65 in 10.0 mi NNW 5.8 mph - N/A   Clear
8:55 AM 53.6 °F - 48.2 °F 82% 29.65 in 10.0 mi NNW 5.8 mph - N/A   Clear
9:15 AM 53.6 °F - 50.0 °F 88% 29.66 in 10.0 mi WNW 5.8 mph - N/A   Partly Cloudy
9:35 AM 55.4 °F - 50.0 °F 82% 29.65 in 9.0 mi WNW 6.9 mph - N/A   Partly Cloudy
9:55 AM 55.4 °F - 50.0 °F 82% 29.66 in 9.0 mi NW 4.6 mph - N/A   Clear
10:15 AM 55.4 °F - 50.0 °F 82% 29.67 in 9.0 mi WNW 5.8 mph - N/A   Clear
10:35 AM 55.4 °F - 50.0 °F 82% 29.66 in 9.0 mi NW 5.8 mph - N/A   Clear
10:55 AM 55.4 °F - 50.0 °F 82% 29.68 in 8.0 mi WNW 3.5 mph - N/A   Partly Cloudy
11:15 AM 55.4 °F - 51.8 °F 88% 29.67 in 9.0 mi NW 5.8 mph - N/A   Clear
11:35 AM 57.2 °F - 51.8 °F 82% 29.67 in 8.0 mi West 8.1 mph - N/A   Clear
11:55 AM 57.2 °F - 51.8 °F 82% 29.69 in 8.0 mi NW 8.1 mph - N/A   Clear
12:15 PM 57.2 °F - 50.0 °F 77% 29.68 in 7.0 mi NW 13.8 mph - N/A   Clear
12:35 PM 57.2 °F - 51.8 °F 82% 29.68 in 7.0 mi WNW 15.0 mph - N/A   Clear
12:55 PM 59.0 °F - 51.8 °F 77% 29.68 in 9.0 mi WNW 13.8 mph - N/A   Clear
1:15 PM 57.2 °F - 51.8 °F 82% 29.68 in 8.0 mi WNW 17.3 mph - N/A   Clear
1:35 PM 59.0 °F - 51.8 °F 77% 29.69 in 9.0 mi WNW 16.1 mph - N/A   Clear
1:55 PM 59.0 °F - 50.0 °F 72% 29.69 in 9.0 mi NW 17.3 mph 20.7 mph N/A   Clear
2:15 PM 59.0 °F - 50.0 °F 72% 29.71 in 10.0 mi WNW 13.8 mph 19.6 mph N/A   Clear
2:35 PM 59.0 °F - 50.0 °F 72% 29.71 in 10.0 mi NW 16.1 mph - N/A   Clear
2:55 PM 60.8 °F - 50.0 °F 68% 29.72 in 10.0 mi WNW 13.8 mph 17.3 mph N/A   Clear
3:15 PM 62.6 °F - 51.8 °F 68% 29.72 in 10.0 mi WNW 13.8 mph - N/A   Clear
3:35 PM 62.6 °F - 51.8 °F 68% 29.73 in 10.0 mi WNW 11.5 mph 16.1 mph N/A   Clear
3:55 PM 62.6 °F - 50.0 °F 63% 29.73 in 10.0 mi NW 10.4 mph 17.3 mph N/A   Clear
4:15 PM 62.6 °F - 50.0 °F 63% 29.74 in 10.0 mi NW 10.4 mph - N/A   Scattered Clouds
4:35 PM 60.8 °F - 50.0 °F 68% 29.76 in 10.0 mi West 6.9 mph - N/A   Mostly Cloudy
4:55 PM 57.2 °F - 50.0 °F 77% 29.73 in 8.0 mi NW 11.5 mph - N/A   Partly Cloudy
5:15 PM 55.4 °F - 50.0 °F 82% 29.75 in 10.0 mi WNW 12.7 mph - N/A   Clear
5:35 PM 57.2 °F - 51.8 °F 82% 29.75 in 10.0 mi WNW 11.5 mph - N/A   Clear
5:55 PM 57.2 °F - 51.8 °F 82% 29.75 in 10.0 mi NW 11.5 mph - N/A   Clear
6:15 PM 57.2 °F - 50.0 °F 77% 29.76 in 10.0 mi WNW 11.5 mph - N/A   Clear
6:35 PM 55.4 °F - 50.0 °F 82% 29.77 in 10.0 mi WNW 11.5 mph - N/A   Clear
6:55 PM 53.6 °F - 48.2 °F 82% 29.77 in 10.0 mi WNW 11.5 mph - N/A   Partly Cloudy
7:15 PM 53.6 °F - 48.2 °F 82% 29.78 in 10.0 mi WNW 10.4 mph - N/A   Mostly Cloudy
7:35 PM 53.6 °F - 48.2 °F 82% 29.79 in 9.0 mi WNW 10.4 mph - N/A   Overcast
7:55 PM 53.6 °F - 48.2 °F 82% 29.80 in 10.0 mi NW 9.2 mph - N/A   Overcast
8:15 PM 51.8 °F - 48.2 °F 88% 29.80 in 9.0 mi WNW 8.1 mph - N/A   Overcast
8:35 PM 51.8 °F - 48.2 °F 88% 29.81 in 10.0 mi WNW 8.1 mph - N/A   Overcast
8:55 PM 51.8 °F - 48.2 °F 88% 29.82 in 10.0 mi WNW 4.6 mph - N/A   Overcast
9:15 PM 51.8 °F - 48.2 °F 88% 29.82 in 10.0 mi WNW 4.6 mph - N/A   Overcast
9:35 PM 51.8 °F - 48.2 °F 88% 29.83 in 10.0 mi WNW 5.8 mph - N/A   Overcast
9:55 PM 50.0 °F - 48.2 °F 94% 29.84 in 10.0 mi WNW 4.6 mph - N/A   Overcast
10:15 PM 51.8 °F - 48.2 °F 88% 29.85 in 10.0 mi NW 3.5 mph - N/A   Overcast
10:35 PM 51.8 °F - 48.2 °F 88% 29.85 in 10.0 mi Calm Calm - N/A   Overcast
10:55 PM 51.8 °F - 48.2 °F 88% 29.86 in 10.0 mi Calm Calm - N/A   Overcast
11:15 PM 51.8 °F - 48.2 °F 88% 29.87 in 10.0 mi Calm Calm - N/A   Overcast
11:35 PM 51.8 °F - 48.2 °F 88% 29.86 in 10.0 mi Calm Calm - N/A   Overcast
11:55 PM 50.0 °F - 48.2 °F 94% 29.86 in 10.0 mi Calm Calm - N/A   Overcast